FW7474 Weather Reports


Display with metric or nautical units.
time (UTC)temp
F
wind
direction
speed
MPH
gust
MPH
rain 1hr
in
rain 24hr
in
rain mn
in
humidity
%
barometer
mb
20260502123431 80 118 3.0 6.0 0.00 0.00 0.00 41 1022.4
20260502122931 79 263 2.0 5.0 0.00 0.00 0.00 40 1022.4
20260502122432 79 30 0.0 10.0 0.00 0.00 0.00 41 1022.3
20260502121934 79 241 2.0 10.0 0.00 0.00 0.00 42 1022.4
20260502121430 79 229 4.0 12.0 0.00 0.00 0.00 41 1022.3
20260502120931 78 148 4.0 12.0 0.00 0.00 0.00 42 1022.6
20260502120433 78 246 2.0 12.0 0.00 0.00 0.00 43 1022.5
20260502115932 78 249 5.0 12.0 0.00 0.00 0.00 43 1022.7
20260502115431 78 240 2.0 11.0 0.00 0.00 0.00 44 1022.7
20260502114933 77 38 2.0 11.0 0.00 0.00 0.00 44 1022.8
20260502114431 78 171 1.0 7.0 0.00 0.00 0.00 43 1022.8
20260502113934 78 144 2.0 9.0 0.00 0.00 0.00 43 1023.0
20260502113709 77 33 2.0 9.0 0.00 0.00 0.00 44 1022.9
20260502112931 77 81 4.0 8.0 0.00 0.00 0.00 45 1023.0
20260502112431 76 116 0.0 9.0 0.00 0.00 0.00 45 1023.0
20260502111931 76 277 5.0 9.0 0.00 0.00 0.00 46 1023.0
20260502111431 76 77 0.0 6.0 0.00 0.00 0.00 45 1022.9
20260502110931 76 140 1.0 7.0 0.00 0.00 0.00 45 1023.2
20260502110431 76 251 3.0 7.0 0.00 0.00 0.00 45 1023.3
20260502105934 76 223 4.0 8.0 0.00 0.00 0.00 46 1023.2
20260502105431 76 88 1.0 8.0 0.00 0.00 0.00 45 1023.6
20260502104933 75 29 2.0 8.0 0.00 0.00 0.00 46 1023.3
20260502104714 75 358 3.0 6.0 0.00 0.00 0.00 46 1023.3
20260502103932 75 49 4.0 6.0 0.00 0.00 0.00 47 1023.6
20260502103713 74 250 1.0 6.0 0.00 0.00 0.00 47 1023.4
20260502102931 74 56 3.0 5.0 0.00 0.00 0.00 47 1023.5
20260502102431 74 198 1.0 6.0 0.00 0.00 0.00 46 1023.6
20260502102232 74 86 2.0 6.0 0.00 0.00 0.00 46 1023.7
20260502102221 74 287 0.0 6.0 0.00 0.00 0.00 45 1023.7
20260502102217 74 237 2.0 6.0 0.00 0.00 0.00 46 1023.6
20260502101444 73 67 4.0 5.0 0.00 0.00 0.00 47 1023.8
20260502091451 70 236 5.0 7.0 0.00 0.00 0.00 49 1024.4
20260502091441 70 72 2.0 6.0 0.00 0.00 0.00 48 1024.1
20260502090417 70 228 2.0 7.0 0.00 0.00 0.00 49 1024.5
20260502065415 60 46 3.0 4.0 0.00 0.00 0.00 56 1025.3
20260502064916 59 29 2.0 4.0 0.00 0.00 0.00 57 1025.0
20260502064416 58 50 2.0 4.0 0.00 0.00 0.00 58 1024.6
20260502063916 58 86 3.0 4.0 0.00 0.00 0.00 58 1025.1
20260502063416 57 82 2.0 4.0 0.00 0.00 0.00 58 1024.9
20260502062917 57 27 2.0 3.0 0.00 0.00 0.00 59 1025.0
20260502062418 56 84 2.0 3.0 0.00 0.00 0.00 60 1025.1
20260502062158 55 53 2.0 4.0 0.00 0.00 0.00 62 1025.0
20260502061416 54 300 2.0 4.0 0.00 0.00 0.00 65 1025.0
20260502060916 53 107 0.0 2.0 0.00 0.00 0.00 70 1025.0
20260502060416 52 289 0.0 2.0 0.00 0.00 0.00 74 1024.9
20260502055919 51 120 1.0 2.0 0.00 0.00 0.00 74 1024.9
20260502055415 50 42 0.0 3.0 0.00 0.00 0.00 75 1024.9
20260502054916 49 116 1.0 3.0 0.00 0.00 0.00 76 1024.9
20260502054416 48 100 2.0 2.0 0.00 0.00 0.00 77 1025.0
20260502053916 48 96 1.0 2.0 0.00 0.00 0.00 77 1024.9
20260502053418 48 125 1.0 2.0 0.00 0.00 0.00 77 1025.0
20260502052915 48 134 0.0 2.0 0.00 0.00 0.00 77 1025.3
20260502052415 47 145 0.0 2.0 0.00 0.00 0.00 77 1024.8
20260502051915 47 146 0.0 2.0 0.00 0.00 0.00 77 1025.2
20260502051416 47 110 1.0 2.0 0.00 0.00 0.00 77 1024.8
20260502050915 47 143 1.0 2.0 0.00 0.00 0.00 77 1025.0
20260502050657 47 82 0.0 3.0 0.00 0.00 0.00 77 1024.9
20260502045915 46 204 2.0 3.0 0.00 0.00 0.00 77 1025.1
20260502045658 46 197 2.0 3.0 0.00 0.00 0.00 77 1024.6
20260502044915 46 185 2.0 2.0 0.00 0.00 0.00 77 1024.7
20260502044416 46 197 1.0 2.0 0.00 0.00 0.00 77 1024.8
20260502044343 46 153 0.0 2.0 0.00 0.00 0.00 77 1024.8
20260502044336 46 200 2.0 3.0 0.00 0.00 0.00 76 1024.5
20260502044248 46 178 1.0 2.0 0.00 0.00 0.00 77 1024.8
20260502044152 46 170 0.0 2.0 0.00 0.00 0.00 77 1024.8
20260502043802 46 150 0.0 2.0 0.00 0.00 0.00 76 1024.7
20260502043711 46 217 0.0 2.0 0.00 0.00 0.00 76 1024.5
20260502043323 46 138 0.0 3.0 0.00 0.00 0.00 76 1025.0
20260502043236 46 147 3.0 3.0 0.00 0.00 0.00 76 1024.8
20260502035909 46 176 0.0 2.0 0.00 0.00 0.00 76 1024.4
20260502035409 46 159 1.0 2.0 0.00 0.00 0.00 75 1024.6
20260502034908 46 174 0.0 2.0 0.00 0.00 0.00 75 1024.8
20260502034408 46 142 0.0 3.0 0.00 0.00 0.00 75 1024.7
20260502033909 46 149 2.0 3.0 0.00 0.00 0.00 75 1024.7
20260502033411 46 151 2.0 3.0 0.00 0.00 0.00 75 1024.6
20260502032909 46 212 2.0 3.0 0.00 0.00 0.00 75 1024.7
20260502032408 47 117 0.0 2.0 0.00 0.00 0.00 75 1024.6
20260502031910 47 175 0.0 2.0 0.00 0.00 0.00 74 1024.6
20260502031408 47 196 0.0 3.0 0.00 0.00 0.00 74 1024.6
20260502030909 47 215 2.0 3.0 0.00 0.00 0.00 73 1024.8
20260502030655 47 123 1.0 3.0 0.00 0.00 0.00 73 1024.5
20260502025909 47 129 1.0 3.0 0.00 0.00 0.00 73 1024.6
20260502025409 47 139 1.0 3.0 0.00 0.00 0.00 73 1024.5
20260502024908 47 169 1.0 3.0 0.00 0.00 0.00 72 1024.7
20260502024409 47 164 0.0 3.0 0.00 0.00 0.00 72 1024.9
20260502023909 47 176 1.0 3.0 0.00 0.00 0.00 72 1024.6
20260502023411 47 122 1.0 2.0 0.00 0.00 0.00 71 1024.7
20260502022909 47 146 0.0 2.0 0.00 0.00 0.00 71 1024.6
20260502022408 47 147 1.0 2.0 0.00 0.00 0.00 71 1024.4
20260502021909 48 170 1.0 2.0 0.00 0.00 0.00 71 1024.7
20260502021409 48 174 1.0 2.0 0.00 0.00 0.00 70 1024.8
20260502020908 48 131 0.0 2.0 0.00 0.00 0.00 70 1024.6
20260502020409 48 146 0.0 2.0 0.00 0.00 0.00 70 1024.7
20260502015908 48 156 1.0 2.0 0.00 0.00 0.00 70 1024.6
20260502015655 48 162 2.0 2.0 0.00 0.00 0.00 70 1024.5
20260502014908 48 156 1.0 2.0 0.00 0.00 0.00 69 1024.9
20260502014656 48 155 1.0 2.0 0.00 0.00 0.00 69 1024.8
20260502014154 48 200 1.0 2.0 0.00 0.00 0.00 69 1024.6
20260502013409 49 138 0.0 2.0 0.00 0.00 0.00 68 1024.8
20260502013005 49 141 1.0 2.0 0.00 0.00 0.00 68 1024.8
20260502012906 49 145 0.0 2.0 0.00 0.00 0.00 68 1024.6
20260502012813 49 139 1.0 2.0 0.00 0.00 0.00 68 1024.7
20260502012657 49 153 2.0 2.0 0.00 0.00 0.00 67 1024.9
20260502012603 49 212 0.0 2.0 0.00 0.00 0.00 67 1024.8
20260502012502 49 150 0.0 2.0 0.00 0.00 0.00 66 1024.9
20260502005905 49 165 1.0 2.0 0.00 0.00 0.00 67 1024.9
20260502005406 49 167 0.0 2.0 0.00 0.00 0.00 66 1024.9
20260502004906 49 161 1.0 2.0 0.00 0.00 0.00 66 1025.1
20260502004406 49 158 0.0 2.0 0.00 0.00 0.00 65 1025.1
20260502003906 50 130 0.0 2.0 0.00 0.00 0.00 65 1024.9
20260502003408 50 158 0.0 2.0 0.00 0.00 0.00 65 1024.9
20260502002906 50 119 0.0 1.0 0.00 0.00 0.00 64 1025.1
20260502002406 50 124 0.0 1.0 0.00 0.00 0.00 64 1025.2
20260502002150 50 156 1.0 1.0 0.00 0.00 0.00 64 1025.2
20260502001405 50 156 1.0 2.0 0.00 0.00 0.00 63 1025.5
20260502000906 50 177 0.0 2.0 0.00 0.00 0.00 63 1025.1
20260502000652 50 157 0.0 2.0 0.00 0.00 0.00 62 1025.1
20260501235907 51 163 1.0 2.0 0.00 0.00 0.00 62 1025.3
20260501235406 51 153 0.0 2.0 0.00 0.00 0.00 62 1025.5
20260501234906 51 117 1.0 2.0 0.00 0.00 0.00 61 1025.5
20260501234410 51 132 1.0 2.0 0.00 0.00 0.00 61 1025.5
20260501233909 51 162 0.0 1.0 0.00 0.00 0.00 61 1025.3
20260501233406 52 157 1.0 1.0 0.00 0.00 0.00 61 1025.3
20260501233150 52 182 0.0 2.0 0.00 0.00 0.00 61 1025.3
20260501232406 52 143 0.0 2.0 0.00 0.00 0.00 60 1025.3
20260501231906 52 153 1.0 2.0 0.00 0.00 0.00 59 1025.5
20260501231406 52 119 0.0 2.0 0.00 0.00 0.00 59 1025.7
20260501230906 52 139 1.0 2.0 0.00 0.00 0.00 60 1025.6
20260501230406 53 136 1.0 2.0 0.00 0.00 0.00 59 1025.6
20260501225906 53 142 0.0 2.0 0.00 0.00 0.00 59 1025.5
20260501225406 53 156 0.0 2.0 0.00 0.00 0.00 58 1025.6
20260501225150 53 149 1.0 2.0 0.00 0.00 0.00 58 1025.9
20260501224406 53 154 0.0 2.0 0.00 0.00 0.00 57 1025.5
20260501223905 53 99 0.0 2.0 0.00 0.00 0.00 56 1025.3
20260501223405 54 158 1.0 2.0 0.00 0.00 0.00 56 1025.6
20260501223131 55 134 0.0 2.0 0.00 0.00 0.00 55 1025.5
20260501223059 54 131 0.0 2.0 0.00 0.00 0.00 57 1025.6
20260501223004 54 128 2.0 2.0 0.00 0.00 0.00 55 1025.6
20260501222911 54 122 0.0 2.0 0.00 0.00 0.00 55 1025.7
20260501222817 54 156 0.0 2.0 0.00 0.00 0.00 53 1025.8
20260501222726 54 134 1.0 2.0 0.00 0.00 0.00 54 1025.3
20260501215902 55 134 1.0 2.0 0.00 0.00 0.00 55 1025.3
20260501215402 55 117 1.0 2.0 0.00 0.00 0.00 55 1025.3
20260501215143 55 148 0.0 2.0 0.00 0.00 0.00 55 1025.7
20260501214405 55 130 1.0 2.0 0.00 0.00 0.00 55 1025.3
20260501213903 55 148 2.0 2.0 0.00 0.00 0.00 55 1025.6
20260501213402 55 173 0.0 2.0 0.00 0.00 0.00 53 1025.6
20260501212902 55 140 0.0 1.0 0.00 0.00 0.00 52 1025.5
20260501212402 56 139 0.0 2.0 0.00 0.00 0.00 52 1025.3
20260501212144 56 148 0.0 2.0 0.00 0.00 0.00 51 1025.6
20260501211405 56 127 0.0 2.0 0.00 0.00 0.00 51 1025.6
20260501210903 56 153 1.0 1.0 0.00 0.00 0.00 51 1025.7
20260501210403 57 153 0.0 1.0 0.00 0.00 0.00 50 1025.6
20260501205902 57 129 0.0 1.0 0.00 0.00 0.00 50 1025.7
20260501205646 57 156 0.0 2.0 0.00 0.00 0.00 49 1025.7
20260501204902 57 145 0.0 2.0 0.00 0.00 0.00 49 1025.5
20260501204403 58 166 0.0 1.0 0.00 0.00 0.00 49 1025.6
20260501203905 58 119 0.0 2.0 0.00 0.00 0.00 48 1025.7
20260501203403 58 112 0.0 2.0 0.00 0.00 0.00 48 1025.6
20260501202902 58 148 1.0 2.0 0.00 0.00 0.00 47 1025.7
20260501202402 59 111 0.0 2.0 0.00 0.00 0.00 46 1025.7
20260501201902 59 104 0.0 2.0 0.00 0.00 0.00 46 1025.5
20260501201403 59 153 1.0 2.0 0.00 0.00 0.00 45 1025.9
20260501200903 60 155 1.0 1.0 0.00 0.00 0.00 44 1025.7
20260501200403 60 154 0.0 2.0 0.00 0.00 0.00 44 1025.6
20260501195903 61 96 0.0 2.0 0.00 0.00 0.00 43 1025.7
20260501195403 61 108 2.0 2.0 0.00 0.00 0.00 43 1025.6
20260501194903 62 118 2.0 2.0 0.00 0.00 0.00 41 1025.5
20260501194404 62 124 1.0 2.0 0.00 0.00 0.00 40 1025.7
20260501193903 63 147 0.0 1.0 0.00 0.00 0.00 39 1025.6
20260501193403 64 209 0.0 3.0 0.00 0.00 0.00 37 1025.5
20260501192938 65 100 2.0 3.0 0.00 0.00 0.00 34 1025.2
20260501192925 64 122 0.0 3.0 0.00 0.00 0.00 36 1025.7
20260501192825 64 81 2.0 3.0 0.00 0.00 0.00 35 1025.3
20260501192433 65 103 2.0 3.0 0.00 0.00 0.00 34 1025.5
20260501192342 65 88 2.0 6.0 0.00 0.00 0.00 33 1025.6
20260501192253 66 95 0.0 6.0 0.00 0.00 0.00 33 1025.3
20260501185844 66 130 1.0 4.0 0.00 0.00 0.00 33 1025.1
20260501185344 67 122 0.0 2.0 0.00 0.00 0.00 32 1025.2
20260501184845 67 27 0.0 3.0 0.00 0.00 0.00 31 1025.2
20260501184344 68 97 0.0 4.0 0.00 0.00 0.00 31 1025.2
20260501184127 68 89 2.0 4.0 0.00 0.00 0.00 30 1025.1
20260501183344 69 66 0.0 4.0 0.00 0.00 0.00 29 1025.6
20260501182844 69 44 0.0 3.0 0.00 0.00 0.00 29 1025.3
20260501182344 70 90 2.0 4.0 0.00 0.00 0.00 28 1025.3
20260501181857 71 89 2.0 4.0 0.00 0.00 0.00 28 1025.2
20260501181344 71 100 2.0 4.0 0.00 0.00 0.00 28 1025.3
20260501180846 72 97 2.0 6.0 0.00 0.00 0.00 27 1024.8
20260501180345 72 81 2.0 6.0 0.00 0.00 0.00 26 1025.2
20260501180129 73 87 2.0 5.0 0.00 0.00 0.00 27 1025.1
20260501175629 73 90 2.0 5.0 0.00 0.00 0.00 24 1025.1
20260501174848 74 111 3.0 7.0 0.00 0.00 0.00 25 1025.0
20260501174346 74 69 2.0 7.0 0.00 0.00 0.00 25 1025.0
20260501173844 75 44 2.0 5.0 0.00 0.00 0.00 24 1025.0
20260501173627 75 79 2.0 5.0 0.00 0.00 0.00 23 1025.0
20260501173126 76 91 2.0 4.0 0.00 0.00 0.00 23 1025.0
20260501172351 76 69 2.0 4.0 0.00 0.00 0.00 23 1025.2
20260501172344 76 28 1.0 4.0 0.00 0.00 0.00 22 1025.2
20260501171344 76 84 2.0 5.0 0.00 0.00 0.00 22 1025.0
20260501170848 76 123 2.0 7.0 0.00 0.00 0.00 22 1025.1
20260501170357 76 68 3.0 7.0 0.00 0.00 0.00 22 1025.1
20260501170133 76 50 3.0 8.0 0.00 0.00 0.00 22 1025.2
20260501165346 77 117 0.0 8.0 0.00 0.00 0.00 22 1025.2
20260501164844 77 20 3.0 8.0 0.00 0.00 0.00 21 1024.9
20260501164630 77 47 4.0 7.0 0.00 0.00 0.00 21 1025.2
20260501163843 78 102 4.0 10.0 0.00 0.00 0.00 20 1025.2
20260501163344 78 76 5.0 10.0 0.00 0.00 0.00 20 1025.5
20260501163304 78 81 2.0 9.0 0.00 0.00 0.00 20 1025.6
20260501163014 78 74 4.0 9.0 0.00 0.00 0.00 19 1025.8
20260501162954 79 69 4.0 6.0 0.00 0.00 0.00 20 1025.3
20260501162846 79 77 2.0 7.0 0.00 0.00 0.00 21 1025.3
20260501162753 78 85 3.0 7.0 0.00 0.00 0.00 20 1025.6
20260501162702 78 90 6.0 6.0 0.00 0.00 0.00 20 1025.5
20260501162306 78 109 2.0 9.0 0.00 0.00 0.00 20 1025.6
20260501155345 78 55 2.0 11.0 0.00 0.00 0.00 19 1025.7
20260501154845 78 88 4.0 11.0 0.00 0.00 0.00 19 1025.6
20260501154627 78 63 6.0 9.0 0.00 0.00 0.00 20 1025.7
20260501153845 78 29 2.0 10.0 0.00 0.00 0.00 20 1025.6
20260501153345 78 121 3.0 17.0 0.00 0.00 0.00 20 1025.9
20260501152847 78 89 5.0 17.0 0.00 0.00 0.00 19 1025.6
20260501152345 78 20 2.0 11.0 0.00 0.00 0.00 20 1025.3
20260501151845 78 70 2.0 11.0 0.00 0.00 0.00 21 1026.1
20260501151626 78 93 5.0 12.0 0.00 0.00 0.00 20 1025.9
20260501150845 77 64 5.0 12.0 0.00 0.00 0.00 20 1026.1
20260501150345 78 76 9.0 11.0 0.00 0.00 0.00 19 1025.9
20260501145845 78 82 4.0 12.0 0.00 0.00 0.00 19 1026.0